OPS 4682 DEB, 38399

Orbit data source: Space-Track

OPS 4682 DEB, 38399 is space debris in LEO originally from a launch on Sat, 03 Apr 1965 UTC launched from the Air Force Western Test Range (AFWTR). Debris objects in space refer to the collection of defunct objects orbiting the Earth. Examples of debris include non-operational satellites, rocket bodies, and fragments generated from explosions, collisions, or faulty payload assembly.

Loading next visibility...
Identifier
38399, 1965-027DC
Orbit
LEO
Country
Flag of USUS
Related business
Manufacturer
Unknown
Mission
Spacecraft
Bus & Motor
Unknown
Mass
Unknown
Launch date (UTC)
1965-04-03 (61 years ago)
Launch vehicle
Unknown
Launch site
Air Force Western Test Range (AFWTR)
Object type
Payload
Rocket body
Debris
Shape & HBR
Unknown shape, 0.1 m
Radar Cross Section
Medium (>0.1 m² and <1 m²)

Expand to show TLE details & history
Last TLE update: 2 days ago

TLE from 2 days ago
0 OPS 4682 DEB
1 38399U 65027DC  26262.06895154  .00000174  00000-0  57883-3 0  9994
2 38399  90.2631  19.4419 0025918 229.6198 130.2660 12.96890285674921
Epoch: 2026-09-19T01:39Z
TLE epoch observation values (Epoch: 2026-09-19T01:39:17.413Z)
Latitude
0.00001°
Longitude
-3.36344°
Altitude
1,290.025 km
Speed
7.205 km/s
True Right ascension
01h 17m 46s
True Declination
0° 00' 00"
Sunlit
Object was in full shadow at epoch
Visualization orbit readout
Latitude
Unknown
Longitude
Unknown
Altitude
Unknown
Speed
Unknown
Apparent Right ascension
Unknown
Apparent Declination
Unknown
Sunlit
N/A
Visualization observer readout
Local Sidereal Time
13:55:41
Azimuth
Unknown
Elevation
Unknown
Doppler factor
Unknown
Orbital elements
Apogee altitude
1,291.253 km
Perigee altitude
1,251.601 km
Semi-major axis
7,649.564 km
Eccentricity
0.00259
Inclination
90.2631°
RAAN
19.4419°
Arg. of periapsis
229.6198°
True anomaly
130.49215°
Mean anomaly
130.266°
Eccentric anomaly
130.37912°
Mean motion
3.24405 °/min
Orbital period
110.97 mins
BSTAR
0.00057883
Loading maneuver chart data...
Computing Atmospheric mass density...
Loading historical data...
Loading historical data...
Loading historical data...
Loading historical data...
Loading historical data...
Loading historical data...
Loading historical data...

Documentation

Showing up to 5 results
|